GSAT0215 (GALILEO 19) (43055 NORAD) Tracking and Keplerian Element Data

This shows tracking and keplerian element data for the satellite.

Feedback or suggestion? Click here.




ElementValue
Catalog43055
NameGSAT0215 (GALILEO 19)
Epoch Orbit785
Epoch Day77.76047735
Epoch Year2019
RAAN294.3057
Inclination56.6323
Eccentricity3.25E-05
Argument of Perigee359.8787
Mean Anonmoly0.1725
Mean Motion1.70473678
Decay Rate1E-07
L11 43055U 17079A 19077.76047735 .00000010 00000-0 00000+0 0 9994
L22 43055 56.6323 294.3057 0000325 359.8787 0.1725 1.70473678 7859

Live tracking and technical data element details for GSAT0215 (GALILEO 19) (NORAD 43055). GSAT0215 (GALILEO 19) can be tracked NOW for your location showing map with azimuth and elevation plus other details from your city location.

Track the satellite on the map from your city or location and see movement details for azimuth, elevation, latitude, longitude, range, height, and movement on the map or in text.







IsCatalogInMostPopularTable: catalog: 43055, numindb: 243
Update: records affected: 1



GetName: 43055 GSAT0215 (GALILEO 19)

Hit Count: updated at: Wed, 20 Mar 2019 04:46:15 GMT